EW2016 Weather Reports


time (UTC)temp
C
wind
direction
speed
KPH
gust
KPH
rain 1hr
cm
rain 24hr
cm
rain mn
cm
humidity
%
barometer
mb
20260510181547 30 319 0.0 3.2 0.00 0.00 0.00 30 1018.0
20260510180143 30 123 1.6 4.8 0.00 0.00 0.00 31 1018.1
20260510174540 30 173 0.0 4.8 0.00 0.00 0.00 37 1018.1
20260510173047 30 88 0.0 6.4 0.00 0.00 0.00 35 1018.2
20260510171538 29 142 0.0 6.4 0.00 0.00 0.00 38 1018.3
20260510170136 29 123 0.0 6.4 0.00 0.00 0.00 36 1018.3
20260510164610 29 108 1.6 4.8 0.00 0.00 0.00 37 1018.4
20260510163133 28 169 0.0 6.4 0.00 0.00 0.00 44 1018.5
20260510161551 28 356 0.0 4.8 0.00 0.00 0.00 42 1018.6
20260510160148 28 212 0.0 4.8 0.00 0.00 0.00 43 1018.7
20260510154552 27 113 0.0 4.8 0.00 0.00 0.00 45 1018.7
20260510153059 26 158 0.0 4.8 0.00 0.00 0.00 47 1019.1
20260510151546 25 15 0.0 4.8 0.00 0.00 0.00 46 1019.0
20260510150139 24 208 0.0 4.8 0.00 0.00 0.00 53 1019.0
20260510144546 23 103 0.0 3.2 0.00 0.00 0.00 59 1018.8
20260510143053 23 259 0.0 3.2 0.00 0.00 0.00 63 1018.8
20260510141536 22 255 0.0 4.8 0.00 0.00 0.00 67 1018.8
20260510140132 22 202 0.0 1.6 0.00 0.00 0.00 69 1018.9
20260510134558 21 307 0.0 3.2 0.00 0.00 0.00 72 1019.0
20260510133053 20 63 0.0 1.6 0.00 0.00 0.00 78 1018.9
20260510131554 20 218 0.0 1.6 0.00 0.00 0.00 86 1018.8
20260510130145 18 230 0.0 0.0 0.00 0.00 0.00 94 1018.7
20260510124557 17 211 0.0 0.0 0.00 0.00 0.00 96 1018.6
20260510123042 16 207 0.0 1.6 0.00 0.00 0.00 96 1018.4
20260510121539 15 42 0.0 0.0 0.00 0.00 0.00 96 1018.4
20260510120136 14 42 0.0 0.0 0.00 0.00 0.00 96 1018.2
20260510114554 13 42 0.0 0.0 0.00 0.00 0.00 96 1018.1
20260510113052 13 42 0.0 0.0 0.00 0.00 0.00 96 1017.8
20260510111549 13 42 0.0 0.0 0.00 0.00 0.00 96 1017.4
20260510110148 12 42 0.0 0.0 0.00 0.00 0.00 96 1017.3
20260510104550 12 42 0.0 0.0 0.00 0.00 0.00 95 1017.0
20260510103043 12 42 0.0 0.0 0.00 0.00 0.00 95 1017.0
20260510101543 12 42 0.0 0.0 0.00 0.00 0.00 95 1016.7
20260510100140 12 42 0.0 0.0 0.00 0.00 0.00 95 1016.4
20260510094602 12 42 0.0 0.0 0.00 0.00 0.00 95 1016.2
20260510093058 13 42 0.0 0.0 0.00 0.00 0.00 95 1016.0
20260510091551 13 42 0.0 0.0 0.00 0.00 0.00 95 1015.9
20260510090153 13 42 0.0 0.0 0.00 0.00 0.00 95 1015.8
20260510084605 13 42 0.0 0.0 0.00 0.00 0.00 95 1015.8
20260510083045 13 42 0.0 0.0 0.00 0.00 0.00 95 1015.7
20260510081551 13 42 0.0 0.0 0.00 0.00 0.00 95 1015.5
20260510080142 13 42 0.0 0.0 0.00 0.00 0.00 95 1015.5
20260510074537 13 42 0.0 0.0 0.00 0.00 0.00 95 1015.5
20260510073035 13 42 0.0 0.0 0.00 0.00 0.00 95 1015.4
20260510071540 13 42 0.0 0.0 0.00 0.00 0.00 95 1015.2
20260510070134 13 42 0.0 0.0 0.00 0.00 0.00 95 1015.3
20260510064552 13 42 0.0 0.0 0.00 0.00 0.00 95 1015.5
20260510063050 13 42 0.0 0.0 0.00 0.00 0.00 95 1015.4
20260510061548 13 42 0.0 0.0 0.00 0.00 0.00 95 1015.2
20260510060146 13 42 0.0 0.0 0.00 0.00 0.00 95 1015.2
20260510054542 13 42 0.0 0.0 0.00 0.00 0.00 95 1015.5
20260510053041 13 42 0.0 0.0 0.00 0.00 0.00 95 1015.6
20260510051543 13 42 0.0 0.0 0.00 0.00 0.00 95 1015.7
20260510050137 14 42 0.0 0.0 0.00 0.00 0.00 95 1015.9
20260510044538 14 42 0.0 0.0 0.00 0.00 0.00 95 1015.8
20260510043037 14 42 0.0 0.0 0.00 0.00 0.00 95 1016.1
20260510041533 14 42 0.0 0.0 0.00 0.00 0.00 95 1015.9
20260510040133 14 42 0.0 0.0 0.00 0.00 0.00 95 1015.8
20260510034547 14 42 0.0 0.0 0.00 0.00 0.00 95 1015.8
20260510033055 15 42 0.0 0.0 0.00 0.00 0.00 95 1015.7
20260510031547 15 42 0.0 0.0 0.00 0.00 0.00 95 1015.6
20260510030145 15 42 0.0 0.0 0.00 0.00 0.00 95 1015.6
20260510024539 15 42 0.0 0.0 0.00 0.00 0.00 95 1015.6
20260510023036 15 42 0.0 0.0 0.00 0.00 0.00 94 1015.6
20260510021536 16 42 0.0 0.0 0.00 0.00 0.00 94 1015.4
20260510020135 16 42 0.0 0.0 0.00 0.00 0.00 94 1015.3
20260510014550 16 42 0.0 0.0 0.00 0.00 0.00 94 1015.1
20260510013048 16 42 0.0 0.0 0.00 0.00 0.00 93 1014.9
20260510011547 17 42 0.0 0.0 0.00 0.00 0.00 92 1014.5
20260510010147 17 42 0.0 0.0 0.00 0.00 0.00 91 1014.5
20260510004540 18 42 0.0 0.0 0.00 0.00 0.00 89 1014.3
20260510003040 18 42 0.0 0.0 0.00 0.00 0.00 87 1014.2
20260510001542 19 42 0.0 0.0 0.00 0.00 0.00 85 1014.1
20260510000138 20 42 0.0 0.0 0.00 0.00 0.00 83 1013.9
20260509234600 20 42 0.0 0.0 0.00 0.00 0.00 81 1013.9
20260509233051 21 42 0.0 0.0 0.00 0.00 0.00 79 1013.7
20260509231552 21 46 0.0 1.6 0.00 0.00 0.00 77 1013.6
20260509230151 21 9 0.0 1.6 0.00 0.00 0.00 76 1013.4
20260509224544 22 263 0.0 1.6 0.00 0.00 0.00 75 1013.3
20260509223044 22 351 0.0 3.2 0.00 0.00 0.00 74 1013.3
20260509221546 22 286 0.0 3.2 0.00 0.00 0.00 73 1013.3
20260509220146 22 77 0.0 3.2 0.00 0.00 0.00 73 1013.3
20260509214537 22 212 0.0 4.8 0.00 0.00 0.00 74 1013.3
20260509213039 22 116 0.0 8.0 0.00 0.00 0.00 73 1013.3
20260509211538 22 63 0.0 3.2 0.00 0.00 0.00 72 1013.2
20260509210134 22 281 0.0 3.2 0.00 0.00 0.00 72 1013.0
20260509204555 23 285 0.0 8.0 0.00 0.00 0.00 70 1013.1
20260509203051 23 279 0.0 3.2 0.00 0.00 0.00 72 1013.2
20260509201551 23 284 1.6 8.0 0.00 0.00 0.00 71 1013.3
20260509200150 23 32 0.0 4.8 0.00 0.00 0.00 74 1013.2
20260509194549 21 193 0.0 3.2 0.00 0.00 0.00 76 1013.7
20260509193047 21 273 0.0 4.8 0.00 0.00 0.00 75 1013.8
20260509191546 21 135 0.0 6.4 0.00 0.00 0.00 74 1013.9
20260509190145 22 94 1.6 8.0 0.00 0.00 0.00 73 1013.9
20260509184558 22 262 1.6 8.0 0.00 0.00 0.00 70 1013.9